This is the latest recevied weather packets stored in our database for station/object K4GDX. If no packets are shown the sender has not sent any weather packets the latest 10 day(s).
| Time | Temp. | Humidity | Pressure | Rain* | Wind** | Luminosity | Snow |
|---|---|---|---|---|---|---|---|
| 1777394216 | 26.67° C | 70% | 1021.3 hPa | 0 mm | - | 1000 W/m² | - |
| 1777393915 | 26.67° C | 69% | 1021.3 hPa | 0 mm | - | 953 W/m² | - |
| 1777393616 | 26.67° C | 71% | 1021.2 hPa | 0 mm | - | 1011 W/m² | - |
| 1777393305 | 26.67° C | 71% | 1021.1 hPa | 0 mm | - | 933 W/m² | - |
| 1777393006 | 26.67° C | 69% | 1020.8 hPa | 0 mm | - | 930 W/m² | - |
| 1777392702 | 26.67° C | 70% | 1020.7 hPa | 0 mm | - | 923 W/m² | - |
| 1777392400 | 26.67° C | 72% | 1020.7 hPa | 0 mm | - | 923 W/m² | - |
| 1777392097 | 26.67° C | 70% | 1020.6 hPa | 0 mm | - | 911 W/m² | - |
| 1777391795 | 26.67° C | 71% | 1020.7 hPa | 0 mm | - | 912 W/m² | - |
| 1777391498 | 26.67° C | 71% | 1020.7 hPa | 0 mm | - | 963 W/m² | - |
| 1777391193 | 26.67° C | 71% | 1020.7 hPa | 0 mm | - | 902 W/m² | - |
| 1777390894 | 26.67° C | 72% | 1020.7 hPa | 0 mm | - | 893 W/m² | - |
| 1777390587 | 26.11° C | 72% | 1020.6 hPa | 0 mm | - | 888 W/m² | - |
| 1777390286 | 26.11° C | 75% | 1020.7 hPa | 0 mm | - | 909 W/m² | - |
| 1777389988 | 26.11° C | 72% | 1020.7 hPa | 0 mm | - | 970 W/m² | - |
| 1777389681 | 26.11° C | 72% | 1020.5 hPa | 0 mm | - | 951 W/m² | - |
| 1777389381 | 25.56° C | 74% | 1020.6 hPa | 0 mm | - | 997 W/m² | - |
| 1777389074 | 25.56° C | 73% | 1020.6 hPa | 0 mm | - | 257 W/m² | - |
| 1777388774 | 25.56° C | 74% | 1020.5 hPa | 0 mm | - | 939 W/m² | - |
| 1777388476 | 25.56° C | 76% | 1020.5 hPa | 0 mm | - | 951 W/m² | - |
| 1777388174 | 25.56° C | 74% | 1020.5 hPa | 0 mm | - | 561 W/m² | - |
| 1777387873 | 25.56° C | 74% | 1020.4 hPa | 0 mm | - | 149 W/m² | - |
| 1777387574 | 25.56° C | 75% | 1020.4 hPa | 0 mm | - | 823 W/m² | - |
| 1777387273 | 25.56° C | 76% | 1020.4 hPa | 0 mm | - | 884 W/m² | - |
| 1777386972 | 25° C | 75% | 1020.4 hPa | 0 mm | - | 360 W/m² | - |
* Rain latest hour (hover to see other rain measurements)
** Current wind speed in m/s (hover to see current wind gust speed)